Regional Weather Roundup
Issued by NWS Green Bay, WI

Home | Current Version | Previous Version | Graphics & Text | Print | Product List | Glossary Off
Versions: 1 2 3 4 5 6 7 8 9 10 11 12 13 14 15 16 17 18 19 20 21 22 23 24 25 26 27 28 29 30 31 32 33 34 35 36 37 38 39 40 41 42 43 44 45 46 47 48 49 50

537
ASUS43 KGRB 191800
RWRGRB

NORTH-CENTRAL AND NORTHEAST WISCONSIN REGIONAL WEATHER ROUNDUP
NATIONAL WEATHER SERVICE GREEN BAY WI
1200 PM CST THU JAN 19 2017

WIZ005-009-010>012-018-019-191900-
NORTH CENTRAL WISCONSIN

CITY           SKY/WX    TMP DP  RH WIND       PRES   REMARKS
IRONWOOD       SUNNY     41  35  79 S8        29.78F
MANITOWISH WTR NOT AVBL
ARBOR VITAE    NOT AVBL
EAGLE RIVER    NOT AVBL
LAND O LAKES   NOT AVBL
RHINELANDER    PTSUNNY   34  34 100 W3        29.82F FOG
PHILLIPS       PTSUNNY   35  33  93 CALM      29.80F
ANTIGO         NOT AVBL
TOMAHAWK       NOT AVBL
MERRILL        FOG       33  33 100 S3          N/A  VSB 3/4
$$

WIZ013-073-191900-
NORTHEAST WISCONSIN

CITY           SKY/WX    TMP DP  RH WIND       PRES   REMARKS
IRON MOUNTAIN  CLOUDY    35  31  85 S5        29.83F FOG
MARINETTE      NOT AVBL
$$

WIZ017-030-035>037-045-191900-
CENTRAL WISCONSIN

CITY           SKY/WX    TMP DP  RH WIND       PRES   REMARKS
MEDFORD        NOT AVBL
WAUSAU         FOG       32  32 100 SE6       29.84F VSB 1/4
MOSINEE        FOG       32  32 100 SE5       29.86F VSB 1/8
MARSHFIELD     FOG       32  31  96 SE8       29.84F VSB<1/4
WISC RAPIDS    CLOUDY    33  33 100 E7        29.88F FOG
STEVENS POINT  NOT AVBL
WAUPACA        NOT AVBL
SHAWANO        NOT AVBL
CLINTONVILLE   FOG       32  32 100 S6        29.90F VSB 1/4
WAUTOMA        CLOUDY    35  33  92 SE8       29.91F FOG
$$

WIZ038-039-048-051-191900-
FOX VALLEY

CITY           SKY/WX    TMP DP  RH WIND       PRES   REMARKS
NWS GREEN BAY  FOG       34  34 100 S6        29.91F VSB 1/4
APPLETON       FOG       32  32 100 S8        29.89F VSB 1/8
OSHKOSH        FOG       32  31  96 S6        29.91F VSB 1/4
FOND DU LAC    CLOUDY    33  30  88 S9        29.91F FOG
$$

WIZ022-050-052-191900-
EAST CENTRAL WISCONSIN

CITY           SKY/WX    TMP DP  RH WIND       PRES   REMARKS
EPHRAIM        NOT AVBL
WASHINGTON ISL NOT AVBL
STURGEON BAY   CLOUDY    34  32  92 S10       29.91F FOG
MANITOWOC      NOT AVBL
SHEBOYGAN      CLOUDY    34  32  92 S8        29.92F FOG
$$

LMZ563-521-522-541>543-191900-
LAKESHORE

STATION/POSITION TIME  TEMP    WIND        PRES    VSBY  WAVE
                       AIR SEA DIR/SP/G                  HT/PER
                 (UTC) (F)     (DEG/KT/KT) (MB)    (MI)  (FT/S)
SHEBOYGAN LKSHOR 1700   34     180/ 15/ 16 1014.9F
KEWAUNEE LKSHORE 1730   33     190/ 10/ 12 1013.1F
NORTHPORT PIER   1740   33     160/  2/  5 1012.9F
SISTER BAY LKSHO 1650   34     190/ 10/ 12   N/A
MENOMINEE LKSHOR 1724          190/ 10/ 20 1012.3
$$




USA.gov is the U.S. government's official web portal to all federal, state and local government web resources and services.